TimeCST,TemperatureF,Dew PointF,Humidity,Sea Level PressureIn,VisibilityMPH,Wind Direction,Wind SpeedMPH,Gust SpeedMPH,PrecipitationIn,Events,Conditions,WindDirDegrees,DateUTC
12:15 AM,15.8,12.2,86,29.92,8.0,NNE,12.7,-,0.00,,Mostly Cloudy,30,2012-12-13 06:15:00
12:35 AM,15.8,12.2,86,29.91,9.0,NNE,17.3,-,0.00,,Mostly Cloudy,20,2012-12-13 06:35:00
12:55 AM,14.0,12.2,93,29.91,9.0,NNE,17.3,-,0.00,,Scattered Clouds,20,2012-12-13 06:55:00
1:15 AM,14.0,12.2,93,29.91,10.0,NNE,16.1,-,0.00,,Scattered Clouds,20,2012-12-13 07:15:00
1:35 AM,14.0,12.2,93,29.92,10.0,NNE,17.3,-,0.00,,Mostly Cloudy,30,2012-12-13 07:35:00
1:55 AM,14.0,10.4,86,29.94,5.0,NNE,12.7,-,0.00,,Mostly Cloudy,30,2012-12-13 07:55:00
2:15 AM,14.0,10.4,86,29.95,7.0,NNE,13.8,-,0.00,,Overcast,30,2012-12-13 08:15:00
2:35 AM,14.0,10.4,86,29.95,7.0,NNE,13.8,-,0.00,,Overcast,30,2012-12-13 08:35:00
2:55 AM,14.0,10.4,86,29.96,7.0,NE,13.8,-,0.00,,Overcast,40,2012-12-13 08:55:00
3:15 AM,14.0,10.4,86,29.97,4.0,NNE,15.0,-,0.00,,Mostly Cloudy,20,2012-12-13 09:15:00
3:35 AM,14.0,8.6,79,29.98,9.0,NNE,15.0,-,0.00,,Overcast,20,2012-12-13 09:35:00
3:55 AM,14.0,8.6,79,30.00,10.0,North,12.7,-,0.00,,Overcast,10,2012-12-13 09:55:00
4:15 AM,14.0,8.6,79,30.00,10.0,North,13.8,-,0.00,,Overcast,10,2012-12-13 10:15:00
4:35 AM,12.2,8.6,85,30.00,10.0,NNE,12.7,-,0.00,,Overcast,20,2012-12-13 10:35:00
4:55 AM,12.2,8.6,85,30.00,5.0,NNE,16.1,-,0.00,,Overcast,20,2012-12-13 10:55:00
5:15 AM,12.2,8.6,85,30.01,10.0,NNE,10.4,-,0.00,,Overcast,20,2012-12-13 11:15:00
5:35 AM,12.2,8.6,85,30.03,7.0,North,10.4,-,0.00,,Overcast,360,2012-12-13 11:35:00
5:55 AM,12.2,8.6,85,30.02,10.0,North,13.8,-,0.00,,Overcast,10,2012-12-13 11:55:00
6:15 AM,12.2,8.6,85,30.03,10.0,North,13.8,-,0.00,,Overcast,10,2012-12-13 12:15:00
6:35 AM,12.2,8.6,85,30.03,10.0,North,13.8,-,0.00,,Overcast,10,2012-12-13 12:35:00
6:55 AM,14.0,8.6,79,30.03,10.0,North,13.8,-,0.00,,Overcast,10,2012-12-13 12:55:00
7:15 AM,14.0,8.6,79,30.03,10.0,North,16.1,-,0.00,,Overcast,10,2012-12-13 13:15:00
7:35 AM,14.0,8.6,79,30.05,10.0,North,13.8,-,0.00,,Mostly Cloudy,10,2012-12-13 13:35:00
7:55 AM,14.0,10.4,86,30.05,9.0,North,13.8,-,0.00,,Mostly Cloudy,10,2012-12-13 13:55:00
8:15 AM,12.2,8.6,85,30.06,10.0,NNE,11.5,-,0.00,,Overcast,20,2012-12-13 14:15:00
8:35 AM,12.2,8.6,85,30.06,10.0,North,12.7,-,0.00,,Overcast,10,2012-12-13 14:35:00
8:55 AM,12.2,8.6,85,30.07,9.0,North,10.4,-,0.00,,Overcast,360,2012-12-13 14:55:00
9:15 AM,14.0,8.6,79,30.09,9.0,North,11.5,-,0.00,,Overcast,350,2012-12-13 15:15:00
9:35 AM,12.2,8.6,85,30.09,9.0,North,13.8,-,0.00,,Overcast,350,2012-12-13 15:35:00
9:55 AM,12.2,8.6,85,30.09,9.0,North,16.1,20.7,0.00,,Overcast,360,2012-12-13 15:55:00
10:15 AM,12.2,8.6,85,30.10,8.0,North,12.7,-,0.00,,Overcast,360,2012-12-13 16:15:00
10:35 AM,12.2,8.6,85,30.11,8.0,North,12.7,-,0.00,,Overcast,360,2012-12-13 16:35:00
10:55 AM,14.0,8.6,79,30.11,8.0,North,9.2,-,0.00,,Overcast,360,2012-12-13 16:55:00
11:15 AM,14.0,10.4,86,30.10,9.0,North,8.1,-,0.00,,Overcast,10,2012-12-13 17:15:00
11:35 AM,14.0,8.6,79,30.10,9.0,North,8.1,-,0.00,,Overcast,360,2012-12-13 17:35:00
11:55 AM,14.0,8.6,79,30.11,9.0,NW,5.8,-,0.00,,Overcast,320,2012-12-13 17:55:00
12:15 PM,14.0,10.4,86,30.11,9.0,NNW,5.8,-,0.00,,Overcast,340,2012-12-13 18:15:00
12:35 PM,14.0,10.4,86,30.11,10.0,North,3.5,-,0.00,,Overcast,350,2012-12-13 18:35:00
12:55 PM,15.8,10.4,79,30.10,10.0,Calm,Calm,-,0.00,,Overcast,0,2012-12-13 18:55:00
1:15 PM,15.8,12.2,86,30.09,10.0,North,5.8,-,0.00,,Overcast,10,2012-12-13 19:15:00
1:35 PM,17.6,10.4,73,30.09,10.0,Calm,Calm,-,0.00,,Overcast,0,2012-12-13 19:35:00
1:55 PM,17.6,12.2,79,30.08,10.0,Calm,Calm,-,0.00,,Overcast,0,2012-12-13 19:55:00
2:15 PM,17.6,12.2,79,30.07,10.0,Calm,Calm,-,0.00,,Overcast,0,2012-12-13 20:15:00
2:35 PM,17.6,12.2,79,30.06,10.0,Calm,Calm,-,0.00,,Overcast,0,2012-12-13 20:35:00
2:55 PM,17.6,12.2,79,30.06,10.0,Calm,Calm,-,0.00,,Overcast,0,2012-12-13 20:55:00
3:15 PM,17.6,12.2,79,30.06,10.0,Calm,Calm,-,0.00,,Overcast,0,2012-12-13 21:15:00
3:35 PM,17.6,12.2,79,30.06,10.0,Calm,Calm,-,0.00,,Overcast,0,2012-12-13 21:35:00
3:55 PM,17.6,12.2,79,30.06,10.0,Calm,Calm,-,0.00,,Mostly Cloudy,0,2012-12-13 21:55:00
4:15 PM,17.6,12.2,79,30.06,10.0,Calm,Calm,-,0.00,,Mostly Cloudy,0,2012-12-13 22:15:00
4:35 PM,17.6,12.2,79,30.06,9.0,Calm,Calm,-,0.00,,Overcast,0,2012-12-13 22:35:00
7:15 PM,14.0,12.2,93,30.08,10.0,Calm,Calm,-,0.00,,Overcast,0,2012-12-14 01:15:00
7:35 PM,15.8,12.2,86,30.08,10.0,Calm,Calm,-,0.00,,Mostly Cloudy,0,2012-12-14 01:35:00
7:55 PM,14.0,10.4,86,30.08,10.0,Calm,Calm,-,0.00,,Clear,0,2012-12-14 01:55:00
8:15 PM,14.0,10.4,86,30.09,9.0,South,4.6,-,0.00,,Mostly Cloudy,170,2012-12-14 02:15:00
8:35 PM,14.0,10.4,86,30.08,10.0,Calm,Calm,-,0.00,,Mostly Cloudy,0,2012-12-14 02:35:00
8:55 PM,15.8,12.2,86,30.07,8.0,South,5.8,-,0.00,,Overcast,170,2012-12-14 02:55:00
9:15 PM,17.6,12.2,79,30.08,8.0,Calm,Calm,-,0.00,,Overcast,0,2012-12-14 03:15:00
9:35 PM,17.6,14.0,86,30.07,8.0,SSE,4.6,-,0.00,,Overcast,160,2012-12-14 03:35:00
9:55 PM,15.8,12.2,86,30.07,8.0,SSE,4.6,-,0.00,,Scattered Clouds,160,2012-12-14 03:55:00
10:15 PM,14.0,10.4,86,30.06,8.0,Calm,Calm,-,0.00,,Clear,0,2012-12-14 04:15:00
10:35 PM,14.0,10.4,86,30.06,8.0,Calm,Calm,-,0.00,,Mostly Cloudy,0,2012-12-14 04:35:00
10:55 PM,14.0,10.4,86,30.05,7.0,ESE,5.8,-,0.00,,Overcast,120,2012-12-14 04:55:00
11:15 PM,14.0,12.2,93,30.05,7.0,SE,5.8,-,0.00,,Overcast,140,2012-12-14 05:15:00
11:35 PM,15.8,12.2,86,30.05,7.0,SSE,4.6,-,0.00,,Overcast,150,2012-12-14 05:35:00